Wetbulb
36.06 33.75 27.65 29.27 30.44 31.01 29.88 27.08 26.01 30.65 34.90 30.66 29.60 29.97 32.39 34.59 32.29 30.68 30.61 32.10 33.15 34.09 36.76 37.26 37.19 36.99 37.14 37.50 37.85 38.59 39.19 40.91 42.59 42.97 43.32 44.12 45.02 46.93 48.63 51.98 53.80 55.33 58.78 59.52
33.51 29.68 33.19 34.40 33.78 30.72 28.77 26.05 24.92 30.07 33.44 30.38 28.12 27.92 32.24 34.55 32.27 31.09 30.32 30.86 32.22 33.65 34.45 35.07 34.93 35.22 35.19 35.36 36.35 37.05 37.94 39.13 40.01 40.97 43.10 45.22 45.15 47.09 48.55 50.03 52.99 54.09 54.70 56.28
26.94 32.40 34.63 32.77 29.57 27.70 27.57 24.88 23.43 24.40 28.92 29.87 27.27 24.34 29.03 32.43 33.47 33.51 32.93 32.69 33.16 32.78 31.86 32.39 33.16 33.09 33.52 33.45 34.70 36.75 38.96 39.10 40.70 42.46 43.26 45.08 45.75 46.39 46.99 49.79 51.16 52.89 54.82 55.30
30.20 34.43 31.69 29.32 27.28 29.17 20.24 31.17 28.77 26.24 18.84 14.12 26.71 12.38 24.94 29.50 30.40 31.90 31.07 30.60 31.69 30.84 31.60 31.84 31.69 31.73 32.29 33.76 35.87 36.53 37.74 38.77 40.75 42.70 43.47 43.56 43.40 43.23 45.96 47.63 50.49 51.43 55.24 55.37
27.91 28.28 27.82 26.42 29.90 30.82 25.80 31.09 27.76 26.49 16.85 18.00 20.30 13.30 22.12 28.69 26.46 26.95 28.82 31.07 30.72 30.25 30.12 29.63 29.97 30.95 31.89 33.87 34.20 35.74 36.89 38.22 40.13 42.12 43.84 44.46 43.52 44.39 46.89 47.44 49.42 51.07 53.60 54.45
29.49 33.50 29.55 30.46 32.00 32.27 32.75 27.29 27.10 24.29 17.89 13.35 14.17 13.10 16.89 21.40 23.24 25.73 29.00 29.53 29.85 29.18 28.80 28.98 30.02 30.83 30.87 32.75 33.72 35.30 36.30 37.16 39.29 41.81 44.97 44.40 43.32 44.23 45.69 46.91 48.17 50.14 51.34 52.47
28.03 28.00 30.56 31.60 27.58 31.41 27.40 19.37 12.03 9.51 10.34 10.91 14.00 15.26 18.69 24.45 26.37 26.93 26.91 28.25 28.27 28.30 27.25 26.95 27.12 28.54 29.80 31.02 32.49 34.47 35.34 35.28 38.10 40.31 42.54 44.62 43.82 45.25 45.92 47.08 47.89 48.31 49.13 50.36
16.56 16.13 24.07 30.81 27.25 22.72 23.88 18.21 10.18 0.39 7.34 12.52 14.79 10.14 20.25 26.94 29.40 28.68 28.92 28.74 28.26 26.74 26.81 26.29 26.87 27.38 27.94 29.93 31.71 32.71 33.15 35.03 36.75 38.66 40.70 43.40 44.78 46.11 46.91 47.32 47.63 47.76 48.59 49.62
17.53 19.56 27.99 29.22 30.58 28.00 23.73 17.72 23.00 10.29 10.71 11.30 12.89 19.41 25.27 26.37 21.89 26.10 26.49 26.80 25.54 25.68 25.98 26.36 26.87 27.18 27.85 29.65 31.17 31.53 32.25 34.35 35.89 37.27 38.86 40.67 42.49 43.61 43.46 44.50 47.08 47.49 48.50 49.22
23.13 13.83 24.37 26.73 29.40 28.07 24.07 25.62 11.69 12.82 5.07 3.07 10.32 10.88 15.79 13.47 14.87 20.80 23.03 23.07 24.17 25.51 25.55 25.90 26.39 26.64 28.00 29.46 31.20 31.92 32.43 33.16 34.59 35.80 36.84 38.52 40.04 41.63 43.00 43.48 44.11 45.85 48.21 46.68
24.85 17.07 19.61 23.91 17.58 19.82 20.69 16.36 15.99 14.88 16.09 10.73 6.91 11.45 17.74 14.46 14.58 18.08 19.56 24.38 22.54 23.85 24.67 25.36 26.25 26.95 27.66 28.29 28.85 30.08 30.68 31.37 32.74 34.28 35.33 36.58 37.76 39.21 40.61 41.88 42.66 44.23 45.13 43.26
26.81 23.69 13.03 17.39 29.14 28.95 25.87 19.38 21.66 10.06 7.75 16.97 16.50 15.42 22.42 18.53 17.46 15.30 18.59 23.33 25.14 25.50 26.14 25.74 25.38 25.99 26.01 25.85 27.22 28.09 29.14 30.26 31.65 33.13 34.35 35.10 36.31 36.85 38.11 39.42 40.98 41.86 41.49 41.46
26.34 17.81 9.28 16.80 20.93 23.73 18.50 24.14 24.59 19.71 20.12 10.72 9.89 13.18 19.54 18.48 16.56 15.55 17.73 19.20 24.03 25.53 26.08 25.58 24.41 23.76 24.34 24.76 25.53 26.76 28.45 29.49 30.41 31.93 32.84 33.27 33.47 34.65 35.66 36.99 38.43 39.29 39.14 39.08
29.52 23.67 14.04 11.43 12.22 14.60 14.83 20.50 23.54 20.19 8.68 12.72 16.10 19.21 24.74 19.30 16.82 14.59 16.85 17.85 20.79 25.50 25.41 23.83 23.41 23.56 23.31 23.06 23.60 24.94 27.19 29.09 29.72 31.02 31.09 31.24 31.88 33.30 34.37 35.48 36.29 37.26 37.20 36.42
25.62 12.49 19.55 20.78 20.24 20.10 19.88 18.48 18.31 16.14 19.25 9.74 18.23 11.75 22.42 24.15 24.03 14.98 17.49 16.00 20.57 20.68 22.00 22.77 22.43 22.38 22.40 22.26 22.34 24.23 25.70 27.32 28.60 28.99 29.58 30.06 31.42 32.64 33.14 33.37 33.91 34.00 34.12 34.09
25.79 11.29 13.58 10.60 20.00 20.65 16.21 19.67 19.32 18.01 17.13 15.61 19.04 18.23 25.39 23.85 14.35 14.42 15.39 15.77 16.59 19.88 19.67 20.52 20.96 20.53 20.49 20.94 21.48 23.65 23.47 25.55 27.60 27.61 27.27 29.45 29.97 30.96 31.57 32.06 32.26 32.34 32.37 32.68
19.97 14.34 7.35 7.87 16.15 13.06 8.91 11.82 14.49 15.70 15.81 14.25 10.60 17.48 14.10 13.76 12.94 13.19 13.19 13.16 14.74 17.27 16.78 19.28 18.83 19.29 19.89 20.22 21.61 22.46 23.17 25.61 26.11 26.92 27.24 27.32 28.50 28.79 29.73 30.68 31.09 30.62 30.96 31.69
14.75 13.95 10.41 5.70 8.52 2.80 17.44 24.81 20.90 17.01 19.82 21.34 19.73 18.47 14.79 13.37 13.54 16.25 14.25 14.96 13.69 15.40 12.51 17.62 18.59 19.12 19.30 20.80 21.56 24.03 23.55 23.59 24.54 25.14 26.70 28.33 28.45 28.46 28.91 29.34 29.68 29.83 30.00 29.77
23.52 16.83 7.29 2.49 1.50 14.51 21.11 20.20 19.37 18.61 19.19 25.81 24.54 22.62 19.75 19.24 22.47 21.02 22.12 19.84 17.66 17.11 15.86 15.77 18.45 19.11 18.92 18.89 21.37 23.49 21.81 21.86 23.17 24.11 25.17 27.00 28.48 28.41 28.68 28.26 28.65 29.40 29.21 29.16
23.66 21.81 13.19 3.92 -2.84 0.98 20.09 21.35 23.67 22.63 14.39 25.42 26.03 26.07 23.68 22.32 15.35 18.59 25.24 23.34 21.86 21.25 21.60 20.36 20.94 19.86 17.91 18.11 20.85 22.38 20.07 19.56 20.37 23.84 25.11 26.79 28.24 28.51 28.50 29.04 29.17 29.92 30.33 30.22
14.72 15.65 12.08 12.39 2.58 12.55 23.83 24.20 23.87 10.95 19.36 23.99 24.90 24.82 22.75 20.34 21.60 22.02 22.55 20.67 21.40 20.72 20.21 20.30 19.58 18.07 16.60 17.52 19.65 19.29 18.40 17.07 19.82 24.22 26.08 26.60 28.11 28.96 29.51 29.48 29.44 29.08 28.85 28.66
14.20 12.07 10.45 13.26 5.74 8.79 24.17 21.68 20.55 24.84 22.74 24.21 23.84 23.62 23.70 22.80 22.32 21.72 21.70 21.87 21.37 19.68 18.46 18.98 18.42 17.65 16.31 16.23 17.01 17.16 15.29 16.75 19.75 23.13 25.14 25.62 26.76 28.53 29.23 29.21 29.30 29.06 28.03 26.87
11.13 19.55 15.09 17.58 17.30 25.48 24.15 24.24 26.15 25.53 25.23 24.02 24.62 24.15 24.22 22.68 20.99 20.84 20.22 20.10 18.39 18.19 19.54 17.81 16.16 17.27 15.36 14.82 14.28 14.27 13.51 15.59 18.31 21.55 23.11 24.75 26.15 26.83 27.43 26.96 27.40 26.98 26.96 26.26
15.62 20.02 16.41 15.10 22.81 23.87 24.65 25.18 25.49 26.16 25.34 25.73 25.76 24.76 23.88 21.26 20.23 19.38 17.31 17.29 16.40 14.24 13.25 12.31 11.87 12.27 12.52 11.77 13.04 10.73 12.22 13.82 17.08 18.63 21.11 23.92 25.29 25.68 25.88 25.73 25.55 25.32 25.45 24.55
19.10 18.46 17.72 18.95 23.16 23.46 25.08 25.51 25.15 24.89 24.89 22.50 21.03 22.54 22.77 22.34 21.88 21.33 18.98 17.63 16.30 12.40 9.77 9.25 8.93 9.17 8.36 6.94 6.39 5.70 9.35 11.32 15.68 16.50 19.01 23.21 24.81 24.81 24.00 24.48 23.15 23.11 24.40 24.78
18.98 22.74 20.38 22.63 30.30 27.11 28.44 21.52 21.71 21.28 21.88 23.43 20.98 16.86 17.77 22.11 21.71 20.88 18.60 18.52 16.40 13.81 11.45 10.26 9.91 9.53 8.34 7.37 6.43 5.37 7.28 10.50 12.09 15.68 16.06 20.33 22.88 23.56 23.64 21.99 21.50 25.76 25.37 25.58
MSLP
1020.14 1019.96 1019.73 1020.01 1020.59 1020.98 1021.19 1020.94 1020.41 1019.53 1018.63 1018.24 1017.23 1016.35 1015.25 1014.85 1015.41 1015.80 1016.28 1016.63 1016.85 1016.81 1016.50 1016.35 1016.19 1016.01 1015.73 1015.51 1015.16 1014.53 1013.88 1013.30 1012.76 1011.98 1011.25 1010.64 1009.88 1009.30 1008.76 1008.49 1008.35 1008.24 1008.39 1008.40
1020.86 1020.40 1020.24 1020.53 1020.78 1021.22 1021.34 1021.08 1020.38 1019.51 1019.10 1019.24 1017.51 1016.24 1015.20 1014.88 1015.36 1015.91 1016.57 1016.99 1016.98 1016.82 1016.61 1016.47 1016.40 1016.12 1015.86 1015.56 1015.13 1014.62 1014.04 1013.51 1013.04 1012.49 1011.54 1010.22 1009.59 1008.83 1008.03 1007.62 1007.59 1007.47 1007.75 1008.00
1021.43 1020.88 1020.76 1021.01 1021.00 1021.39 1021.41 1021.03 1020.75 1020.71 1019.65 1018.75 1018.46 1016.62 1015.17 1015.06 1015.54 1016.16 1016.62 1016.93 1017.02 1016.87 1016.64 1016.56 1016.40 1016.25 1015.88 1015.48 1015.01 1014.37 1013.75 1013.49 1012.90 1012.18 1011.21 1010.08 1009.17 1008.46 1007.71 1007.08 1006.88 1006.95 1007.07 1007.48
1021.96 1021.27 1021.32 1021.47 1021.25 1021.50 1021.70 1021.05 1021.03 1021.20 1021.52 1021.02 1019.79 1018.78 1016.54 1015.76 1016.03 1016.26 1016.67 1016.94 1017.04 1017.12 1017.09 1016.87 1016.57 1016.29 1016.02 1015.39 1014.68 1014.12 1013.64 1013.15 1012.24 1011.35 1010.46 1009.57 1008.61 1007.93 1007.23 1006.83 1006.59 1006.59 1006.56 1006.78
1022.12 1021.64 1021.51 1021.91 1021.30 1021.61 1021.68 1021.58 1021.33 1021.64 1022.51 1022.49 1020.82 1020.31 1016.96 1016.32 1016.39 1016.74 1017.15 1017.34 1017.36 1017.43 1017.28 1016.98 1016.82 1016.45 1016.00 1015.40 1014.65 1013.95 1013.38 1012.68 1011.53 1010.45 1009.45 1008.55 1007.85 1007.43 1006.89 1006.38 1006.21 1006.07 1006.06 1006.30
1022.46 1022.41 1022.21 1021.88 1021.60 1021.57 1022.04 1021.80 1021.48 1021.92 1023.31 1023.39 1022.09 1021.48 1018.20 1017.34 1017.42 1017.51 1017.73 1017.88 1017.54 1017.40 1017.21 1017.14 1016.79 1016.21 1015.66 1014.97 1014.39 1013.73 1013.09 1012.13 1011.00 1009.62 1007.83 1007.11 1007.22 1006.85 1006.41 1006.22 1006.15 1006.12 1006.04 1006.17
1022.56 1022.59 1022.37 1022.50 1022.05 1021.98 1022.49 1023.20 1023.81 1023.86 1024.02 1023.32 1022.49 1021.74 1018.63 1017.92 1018.10 1018.46 1018.30 1017.99 1017.88 1017.80 1017.56 1017.16 1016.72 1016.19 1015.64 1015.06 1014.35 1013.77 1013.05 1011.81 1010.69 1009.34 1007.94 1006.82 1006.48 1006.35 1005.91 1006.01 1006.03 1006.08 1006.06 1006.09
1023.81 1023.23 1023.09 1022.90 1022.81 1023.03 1023.88 1024.98 1025.98 1026.36 1025.26 1024.30 1022.81 1021.66 1018.65 1018.18 1018.72 1019.12 1019.23 1018.91 1018.74 1018.51 1018.18 1017.72 1017.17 1016.47 1015.80 1015.09 1014.40 1013.78 1012.98 1011.90 1010.65 1009.32 1008.17 1007.09 1006.39 1006.21 1006.00 1005.99 1006.01 1005.89 1005.89 1006.03
1024.43 1023.88 1023.45 1023.48 1023.35 1023.69 1024.79 1025.57 1026.03 1026.74 1025.93 1025.50 1022.88 1020.35 1019.22 1019.13 1019.51 1019.59 1019.67 1019.54 1019.31 1018.86 1018.40 1017.88 1017.29 1016.65 1015.85 1015.01 1014.27 1013.67 1012.83 1011.89 1010.78 1009.45 1008.48 1007.60 1007.03 1006.53 1006.42 1006.63 1006.23 1006.08 1006.00 1006.03
1025.12 1025.20 1024.02 1024.03 1023.89 1024.41 1025.12 1025.94 1026.55 1027.10 1026.84 1025.29 1022.48 1021.38 1020.14 1020.13 1020.51 1020.65 1020.35 1020.02 1019.57 1018.98 1018.41 1017.90 1017.35 1016.68 1015.88 1015.04 1014.17 1013.46 1012.76 1011.87 1010.87 1009.76 1009.15 1008.51 1007.98 1007.52 1007.45 1007.44 1006.91 1006.50 1006.41 1006.41
1025.23 1025.98 1024.88 1024.31 1024.03 1023.99 1025.46 1025.91 1026.49 1026.75 1026.59 1025.97 1023.99 1021.07 1019.50 1020.41 1020.97 1021.17 1020.74 1020.03 1019.61 1018.99 1018.49 1017.87 1017.32 1016.64 1015.85 1015.06 1014.26 1013.37 1012.55 1011.72 1010.78 1010.13 1009.61 1009.02 1008.57 1008.01 1007.90 1007.57 1007.18 1006.90 1006.80 1006.72
1025.33 1025.75 1025.48 1023.84 1023.10 1023.43 1024.06 1024.81 1025.40 1026.27 1026.25 1025.69 1024.81 1020.92 1019.01 1020.08 1020.82 1020.80 1020.37 1019.88 1019.61 1019.13 1018.50 1017.96 1017.37 1016.75 1015.97 1015.22 1014.39 1013.52 1012.61 1011.74 1011.02 1010.31 1009.72 1009.20 1008.65 1008.29 1008.00 1007.66 1007.33 1007.14 1007.06 1007.06
1025.40 1025.93 1025.67 1024.30 1024.23 1024.09 1024.47 1024.47 1024.98 1025.64 1025.86 1025.16 1024.94 1020.56 1019.32 1019.91 1020.53 1020.30 1020.22 1019.95 1019.59 1019.13 1018.63 1018.21 1017.48 1016.92 1016.28 1015.44 1014.54 1013.65 1012.74 1011.99 1011.35 1010.69 1009.98 1009.37 1008.86 1008.44 1008.12 1007.82 1007.39 1007.17 1007.36 1007.31
1025.61 1025.89 1025.97 1025.44 1025.08 1024.86 1024.64 1024.12 1024.49 1025.26 1025.59 1024.14 1022.35 1020.41 1018.65 1019.83 1019.93 1020.10 1020.15 1019.84 1019.61 1019.20 1018.99 1018.48 1017.99 1017.43 1016.70 1015.91 1015.15 1014.23 1013.28 1012.50 1011.65 1010.89 1010.34 1009.85 1009.34 1008.83 1008.34 1007.99 1007.55 1007.34 1007.68 1007.66
1025.95 1026.48 1026.32 1025.70 1025.12 1024.79 1024.20 1023.73 1024.09 1024.44 1023.63 1023.97 1020.35 1020.92 1018.63 1019.39 1019.92 1019.98 1020.03 1020.05 1019.83 1019.23 1019.19 1018.80 1018.57 1018.18 1017.41 1016.40 1015.51 1014.57 1013.76 1012.81 1011.96 1011.08 1010.39 1009.88 1009.34 1008.87 1008.51 1008.15 1007.91 1007.95 1008.17 1008.32
1026.16 1026.76 1027.04 1026.19 1024.85 1024.51 1023.64 1021.98 1022.21 1022.72 1023.15 1022.71 1021.41 1020.39 1019.02 1018.75 1019.45 1019.96 1020.29 1020.58 1020.20 1019.47 1019.60 1019.15 1018.98 1018.77 1017.94 1017.08 1016.40 1015.46 1014.40 1013.39 1012.30 1011.53 1010.85 1010.25 1009.74 1009.41 1009.08 1009.00 1008.81 1008.72 1008.94 1008.76
1026.52 1027.33 1027.84 1026.84 1025.54 1024.44 1022.22 1019.50 1020.10 1020.52 1020.52 1020.52 1020.49 1018.82 1018.62 1019.24 1019.83 1019.66 1020.19 1020.48 1020.22 1019.67 1019.76 1019.51 1019.27 1019.29 1018.68 1017.83 1017.04 1015.89 1015.16 1014.18 1013.06 1012.35 1011.69 1011.14 1010.74 1010.43 1010.16 1009.99 1009.78 1009.93 1010.02 1009.61
1026.69 1027.57 1027.92 1027.52 1026.26 1023.96 1019.09 1018.17 1018.23 1018.55 1018.26 1018.33 1018.02 1017.93 1018.37 1018.76 1018.99 1018.93 1019.46 1019.80 1020.04 1019.58 1019.72 1019.60 1019.24 1019.08 1018.93 1018.39 1017.33 1016.70 1015.88 1014.81 1013.94 1013.14 1012.40 1011.85 1011.40 1011.30 1011.06 1010.88 1010.84 1010.81 1010.67 1010.19
1026.54 1027.20 1028.00 1028.08 1026.77 1022.48 1018.60 1017.64 1017.40 1017.32 1016.12 1015.41 1016.33 1016.64 1017.25 1018.01 1018.39 1017.94 1018.11 1018.66 1019.28 1019.28 1019.44 1019.46 1019.25 1019.05 1019.15 1018.40 1017.67 1017.05 1016.57 1015.75 1015.03 1014.23 1013.62 1012.97 1012.60 1012.26 1011.92 1011.61 1011.30 1011.25 1011.35 1011.74
1026.94 1027.10 1027.70 1028.31 1026.86 1022.92 1017.98 1016.77 1016.42 1016.33 1015.60 1013.93 1014.47 1015.39 1016.47 1017.50 1018.08 1017.48 1017.64 1018.13 1018.72 1018.86 1018.99 1019.32 1019.09 1018.96 1019.30 1019.04 1018.05 1017.58 1017.49 1016.96 1015.99 1015.39 1014.71 1013.85 1013.36 1012.86 1012.47 1012.07 1012.29 1012.60 1012.76 1013.15
1026.91 1027.09 1026.79 1026.70 1025.40 1021.24 1017.09 1016.42 1016.29 1016.12 1014.59 1013.52 1013.99 1014.66 1015.79 1016.64 1016.71 1016.92 1017.31 1017.90 1018.33 1018.75 1018.87 1019.23 1019.28 1019.37 1019.42 1019.49 1018.86 1018.36 1018.32 1018.12 1017.81 1016.66 1015.76 1015.07 1014.23 1013.81 1013.46 1013.24 1013.39 1013.81 1014.19 1014.26
1024.17 1024.77 1025.07 1024.89 1023.79 1019.96 1016.07 1016.49 1015.67 1013.74 1013.35 1013.50 1013.90 1014.31 1015.16 1015.72 1016.30 1016.80 1017.27 1017.86 1018.25 1018.68 1019.02 1019.30 1019.64 1019.76 1019.67 1019.75 1019.45 1019.08 1019.09 1018.94 1018.27 1017.48 1016.72 1016.15 1015.74 1015.27 1015.02 1014.93 1015.07 1014.84 1014.74 1014.96
1022.44 1020.76 1021.06 1020.55 1018.01 1015.51 1015.14 1014.13 1013.64 1013.53 1013.55 1013.65 1013.94 1014.29 1014.78 1015.65 1016.40 1016.80 1017.31 1017.99 1018.44 1018.76 1019.30 1019.64 1019.91 1020.16 1020.32 1020.12 1020.05 1019.84 1019.84 1019.34 1018.59 1017.96 1017.45 1016.91 1016.44 1016.25 1016.16 1016.10 1016.20 1016.32 1016.60 1016.88
1020.22 1019.07 1019.06 1018.34 1015.01 1014.56 1014.03 1013.68 1013.65 1013.52 1013.59 1013.63 1013.79 1014.24 1014.80 1015.49 1016.15 1016.79 1017.40 1018.21 1018.73 1018.99 1019.55 1020.02 1020.34 1020.49 1020.71 1020.84 1020.61 1020.40 1020.06 1019.61 1019.01 1018.45 1017.94 1017.56 1017.26 1017.10 1016.95 1017.02 1017.25 1017.42 1017.60 1017.81
1018.11 1018.04 1016.80 1015.56 1013.53 1013.79 1013.07 1012.81 1012.53 1012.96 1013.21 1013.62 1013.96 1014.31 1014.74 1015.37 1016.13 1016.70 1017.46 1018.21 1018.48 1019.03 1019.69 1020.16 1020.54 1020.78 1020.97 1020.96 1021.19 1021.10 1020.61 1019.94 1019.36 1018.99 1018.63 1018.28 1018.13 1018.07 1018.11 1018.14 1018.45 1018.64 1018.75 1018.89
1016.10 1014.40 1014.76 1012.62 1010.95 1011.79 1011.47 1011.54 1011.48 1012.83 1013.08 1013.15 1013.92 1014.73 1014.90 1015.10 1015.82 1016.60 1017.30 1017.60 1018.21 1018.94 1019.57 1020.11 1020.53 1020.79 1020.95 1021.10 1021.18 1021.18 1020.96 1020.59 1020.24 1019.96 1019.70 1019.27 1018.89 1018.80 1018.90 1019.08 1019.30 1019.33 1019.44 1019.56
Wind_Speed
3 1 2 5 4 3 6 8 10 13 12 9 10 20 21 5 4 4 4 6 7 8 11 12 13 12 14 12 14 15 14 14 11 9 8 7 9 9 6 6 9 9 7 5
2 1 6 2 4 6 7 9 8 11 11 13 13 19 18 11 5 3 3 7 8 13 14 14 13 11 12 13 14 15 16 15 14 12 12 8 8 9 9 6 8 8 7 5
0 4 2 0 3 5 7 5 5 12 16 9 7 9 5 5 5 4 4 6 10 14 17 15 15 13 11 13 14 15 14 15 14 15 12 12 9 10 9 3 3 5 7 6
3 4 1 4 3 4 4 8 12 13 5 4 6 6 7 9 7 7 4 9 14 13 14 13 14 12 14 17 15 15 13 16 15 16 13 17 10 10 8 5 4 6 8 6
1 3 2 1 2 3 9 12 16 7 2 5 1 1 5 7 4 6 9 16 13 14 15 17 16 16 14 15 15 14 15 17 17 15 17 14 11 9 8 4 6 6 4 3
4 1 2 4 7 3 9 7 10 3 3 3 2 4 7 3 2 8 13 15 15 17 16 16 16 16 16 15 14 14 14 16 17 16 17 12 12 11 6 4 3 3 3 3
2 1 2 2 4 4 8 7 6 6 2 6 5 3 11 4 4 9 16 18 16 17 16 17 17 15 15 16 15 13 14 17 17 15 15 9 11 14 6 6 4 3 3 3
2 7 3 1 2 1 3 2 3 5 5 8 6 7 8 6 6 8 10 12 15 16 15 17 16 15 13 15 14 14 14 14 15 14 13 13 7 6 3 3 3 3 3 2
1 5 3 1 2 4 2 1 2 2 2 2 6 8 4 3 5 9 13 12 14 15 15 16 15 14 14 13 13 13 14 12 12 13 11 12 11 9 8 8 6 4 3 0
3 5 1 1 2 5 2 1 3 1 5 7 7 8 7 6 7 8 9 9 12 13 15 15 14 14 13 12 11 11 11 11 10 10 10 9 8 7 6 6 8 7 6 2
3 4 4 3 5 7 2 2 2 1 2 3 6 8 7 7 5 8 8 8 10 12 13 14 13 13 13 12 12 12 11 10 9 8 8 7 7 6 6 5 5 4 5 4
3 0 5 8 6 5 1 3 4 5 6 5 3 13 5 8 7 5 6 7 9 10 12 13 13 14 14 13 13 12 12 11 10 9 8 7 6 6 5 5 4 3 4 3
5 2 4 5 5 2 3 5 4 0 2 7 2 11 3 4 5 4 2 5 7 9 11 11 13 13 13 13 13 13 12 11 10 9 8 6 6 6 5 5 4 3 3 3
1 3 7 7 6 3 5 5 7 8 3 5 14 22 24 8 7 6 7 5 6 7 9 9 12 13 14 13 13 13 12 11 10 8 6 5 5 4 4 3 4 5 4 4
3 5 3 9 11 11 14 16 11 13 17 6 21 7 25 17 15 6 5 4 8 8 10 11 12 12 13 15 15 13 13 11 10 8 6 5 5 4 4 5 5 7 7 4
4 4 1 7 8 6 12 17 15 17 13 15 23 29 20 13 1 5 6 4 8 8 7 10 11 12 13 14 14 13 14 12 10 9 8 8 7 7 7 6 7 9 8 8
5 3 1 7 3 7 9 10 9 6 9 8 8 14 3 4 5 6 5 2 6 7 5 8 9 9 11 14 13 13 13 11 11 10 9 9 8 9 9 8 10 10 9 10
5 3 2 5 6 2 10 5 6 9 7 15 12 9 6 7 6 6 4 4 3 6 4 6 7 8 8 9 12 11 12 12 12 13 12 10 10 10 10 11 12 12 11 13
4 2 1 2 3 11 11 3 6 7 10 10 16 9 6 1 3 8 6 5 4 3 3 4 4 4 6 8 10 9 11 11 13 14 13 11 10 10 11 13 14 14 14 13
1 3 3 2 3 8 4 3 1 2 7 5 5 7 7 5 1 4 6 4 5 2 3 5 5 6 6 10 10 9 9 12 14 13 12 12 11 11 13 15 15 12 12 12
4 3 10 7 5 12 11 7 3 7 9 3 4 6 8 6 5 4 6 4 4 3 2 4 5 5 6 8 8 8 8 10 9 10 10 10 11 12 13 14 13 11 10 11
10 10 7 5 4 14 8 4 8 6 0 2 4 6 7 5 6 5 6 6 5 3 1 4 4 4 5 6 6 7 8 8 8 7 8 8 9 9 8 11 9 9 10 12
4 10 8 14 13 3 8 6 7 1 3 5 6 6 7 8 7 7 6 6 4 4 2 1 3 3 3 5 5 4 6 7 7 6 8 8 9 9 10 10 8 7 8 7
6 5 5 3 11 20 15 11 8 7 8 5 6 8 8 7 7 6 4 4 4 3 3 2 1 2 2 3 5 5 6 6 5 6 7 6 8 8 9 8 8 8 7 6
5 8 7 7 20 12 17 15 12 11 9 6 5 8 9 8 7 7 6 6 6 4 3 3 3 1 2 2 2 2 4 5 5 5 5 6 6 8 8 8 7 7 8 8
9 13 8 15 20 12 13 5 6 9 11 13 10 4 5 9 9 7 7 6 5 5 4 3 3 2 1 1 3 4 5 5 5 5 4 4 3 3 4 5 6 16 15 16
Wind_Direction
49 353 55 47 36 327 298 292 288 287 305 308 278 291 288 256 158 184 221 343 323 308 323 325 325 322 317 319 317 305 299 300 310 298 278 272 265 254 237 207 223 237 236 245
26 174 68 13 275 283 293 285 282 282 324 321 293 290 278 260 187 131 340 299 321 323 320 325 320 317 319 319 319 318 310 313 306 301 297 271 266 274 238 215 206 221 226 221
143 58 74 268 317 313 288 259 321 302 333 273 297 284 157 155 148 196 240 313 327 327 329 326 323 324 320 318 315 308 307 305 293 285 284 282 270 267 267 254 194 221 221 208
277 92 2 333 280 62 286 2 325 314 31 302 52 281 308 134 191 186 315 328 326 335 326 322 326 325 327 317 311 311 310 303 293 287 278 271 254 264 248 229 212 228 227 212
34 346 352 241 256 39 247 321 291 289 91 346 191 76 256 148 210 349 334 329 326 337 332 333 330 327 322 319 317 307 311 304 297 292 278 260 244 250 260 220 214 202 230 225
245 86 254 316 313 275 317 304 307 95 151 257 198 82 268 224 296 326 335 325 337 338 338 329 326 329 325 322 317 317 313 313 307 306 312 227 246 257 235 253 253 210 216 220
227 193 122 270 302 114 20 1 334 349 259 239 219 305 249 151 33 2 333 329 341 338 333 328 329 328 323 320 321 319 318 318 312 317 328 290 232 244 241 222 208 226 246 237
32 322 178 249 59 119 39 69 131 277 309 298 228 239 261 141 50 3 325 330 335 331 331 327 326 322 318 315 315 319 320 314 314 322 332 335 4 358 0 354 316 233 208 247
334 264 122 359 35 109 131 250 29 269 238 311 239 277 58 92 349 346 337 337 328 328 329 326 326 321 318 318 317 318 315 313 315 330 339 342 347 359 4 343 337 342 336 6
100 306 72 158 147 72 141 115 17 290 306 296 291 285 245 306 317 315 319 327 328 324 328 330 329 325 319 321 316 308 307 309 314 336 337 334 335 350 338 311 303 311 318 354
125 120 269 134 196 168 140 234 248 126 200 273 304 264 200 199 232 272 293 328 330 326 328 330 330 327 328 331 329 325 324 323 329 330 320 320 320 335 322 296 297 327 326 335
153 243 264 229 114 39 100 232 161 134 271 237 252 267 165 183 211 224 280 335 323 322 329 332 333 334 338 338 335 339 334 336 333 325 318 317 325 332 316 315 330 347 333 347
174 234 323 335 6 87 214 206 198 60 24 224 224 264 222 238 248 227 334 305 313 320 331 334 339 342 343 340 338 340 338 336 333 326 327 335 334 329 325 332 341 6 12 25
269 255 195 207 209 117 258 207 208 178 198 254 237 277 280 269 321 314 320 299 318 311 330 335 343 342 341 340 339 339 341 337 339 335 341 347 340 330 349 353 25 51 53 55
209 232 261 262 269 266 262 262 228 224 225 207 270 264 279 296 301 269 254 313 324 322 347 342 345 346 338 340 341 345 343 342 341 347 357 358 351 12 32 37 51 63 64 68
189 263 91 281 250 259 272 256 234 229 240 259 262 275 282 279 15 310 272 34 314 316 336 335 340 348 337 338 341 345 345 344 339 351 359 4 13 26 39 41 58 66 59 71
154 205 73 267 340 309 304 242 178 200 187 167 192 234 210 288 261 258 267 93 287 311 323 336 332 345 333 334 335 346 349 348 356 7 14 22 32 42 46 54 65 63 61 70
140 153 120 268 0 303 240 203 174 197 222 216 262 254 218 216 239 251 211 177 277 300 322 327 322 333 336 334 335 346 355 360 7 11 14 27 43 52 55 60 65 67 62 59
150 184 309 194 241 287 293 158 169 175 282 215 227 247 220 181 289 277 163 166 185 242 280 272 292 325 344 343 336 349 9 3 14 12 15 18 38 56 61 64 60 57 60 59
217 326 149 95 185 236 259 169 90 118 293 191 192 208 171 149 351 264 161 153 137 136 342 354 349 348 7 357 340 6 17 8 3 5 8 10 27 44 56 55 54 53 58 65
161 187 219 220 258 280 255 165 174 85 242 172 186 170 153 191 196 164 131 143 132 135 339 15 6 10 356 360 346 19 16 18 344 348 10 20 19 42 46 52 51 54 61 67
174 165 194 182 205 274 148 71 176 216 255 213 209 188 180 170 148 161 182 168 166 166 81 15 17 18 358 6 0 24 27 345 340 356 21 27 32 38 43 57 55 45 50 58
253 196 185 192 209 217 209 221 221 225 213 211 201 202 177 167 194 184 197 192 183 181 127 69 7 357 34 360 18 28 356 345 342 10 26 30 37 41 40 48 52 60 59 65
254 172 230 79 245 239 235 248 246 222 223 219 214 189 180 178 180 191 181 177 186 187 193 168 38 351 8 11 17 360 348 340 356 27 21 27 50 49 46 45 44 47 46 47
192 138 208 265 267 289 272 243 229 225 208 192 209 189 193 167 189 182 185 192 212 193 174 166 196 235 307 356 45 7 345 347 16 32 20 27 60 62 60 62 63 57 57 71
181 220 211 248 257 227 250 230 193 196 212 208 176 205 200 172 186 173 189 193 186 185 166 171 214 208 227 48 25 16 10 13 12 47 29 4 26 55 81 75 60 62 64 63